Jacksonville, AR

3:03 PM CDT on August 28, 2016 (GMT -0500)
Little Rock Air Force Base

Weather History for KLRF - January, 2013

Change the Weather History Date:

Sunday, January 20, 2013

  Actual Average Record
Temperature  
Mean Temperature 44 °F -  
Max Temperature 59 °F 47 °F 71 °F (1972)
Min Temperature 29 °F 29 °F -5 °F (1985)
Degree Days  
Heating Degree Days 21    
Moisture  
Dew Point 31 °F    
Average Humidity 66    
Maximum Humidity 90    
Minimum Humidity 33    
Precipitation  
Precipitation 0.00 in - - ()
Sea Level Pressure  
Sea Level Pressure 30.22 in    
Wind  
Wind Speed 3 mph (East)    
Max Wind Speed 14 mph    
Max Gust Speed -    
Visibility 10 miles    
Events      
Averages and records for this station are not official NWS values.
T = Trace of Precipitation, MM = Missing Value Source: NWS Daily Summary

Daily Weather History Graph

Daily Weather History Graph

Search for Another Location

Airport or City:

Trip Planner

Search our weather history database for the weather conditions in past years. The results will help you decide how hot, cold, wet, or windy it might be!

Date:

Astronomy

Jan. 20, 2013 Rise Set
Actual Time 7:14 AM CST 5:25 PM CST
Civil Twilight 6:46 AM CST 5:52 PM CST
Nautical Twilight 6:16 AM CST 6:23 PM CST
Astronomical Twilight 5:45 AM CST 6:53 PM CST
Moon 12:26 PM CST (1/20) 1:48 AM CST (1/20)
Length of Visible Light 11h 05m
Length of Day
10h 11m
Waxing Gibbous, 66% of the Moon is Illuminated
Jan 20
Waxing Gibbous
Jan 26
Full
Feb 3
Last Quarter
Feb 10
New
Feb 17
First Quarter

Hourly Weather History & Observations

Time (CST) Temp. Windchill Dew Point Humidity Pressure Visibility Wind Dir Wind Speed Gust Speed Precip Events Conditions
12:55 AM 33.3 °F - 29.5 °F 86% 30.22 in 10.0 mi Calm Calm - N/A   Clear
1:55 AM 32.7 °F - 29.1 °F 87% 30.23 in 10.0 mi Calm Calm - N/A   Clear
2:55 AM 31.8 °F - 28.9 °F 89% 30.23 in 10.0 mi Calm Calm - N/A   Clear
3:55 AM 31.5 °F - 28.4 °F 88% 30.22 in 10.0 mi Calm Calm - N/A   Clear
4:55 AM 30.6 °F - 27.9 °F 90% 30.24 in 10.0 mi Calm Calm - N/A   Clear
5:55 AM 30.4 °F 24.5 °F 27.3 °F 88% 30.25 in 10.0 mi SW 5.8 mph - N/A   Clear
6:55 AM 29.8 °F 26.3 °F 27.0 °F 89% 30.26 in 10.0 mi West 3.5 mph - N/A   Clear
7:55 AM 31.8 °F 28.5 °F 29.3 °F 90% 30.27 in 10.0 mi WSW 3.5 mph - N/A   Clear
8:55 AM 45.5 °F 41.8 °F 36.0 °F 69% 30.29 in 10.0 mi NNE 6.9 mph - N/A   Clear
9:55 AM 50.9 °F - 31.8 °F 48% 30.30 in 10.0 mi NE 10.4 mph - N/A   Clear
10:55 AM 53.6 °F - 28.9 °F 39% 30.29 in 10.0 mi East 13.8 mph - N/A   Clear
11:55 AM 55.6 °F - 29.1 °F 36% 30.26 in 10.0 mi East 9.2 mph - N/A   Clear
12:55 PM 57.4 °F - 28.8 °F 34% 30.22 in 10.0 mi Variable 4.6 mph - N/A   Clear
1:55 PM 58.5 °F - 28.9 °F 33% 30.20 in 10.0 mi Calm Calm - N/A   Clear
2:55 PM 59.5 °F - 32.0 °F 35% 30.19 in 10.0 mi ESE 6.9 mph - N/A   Clear
3:55 PM 58.6 °F - 32.9 °F 38% 30.18 in 10.0 mi East 5.8 mph - N/A   Clear
4:55 PM 57.4 °F - 32.4 °F 39% 30.18 in 10.0 mi SE 4.6 mph - N/A   Clear
5:55 PM 49.6 °F - 33.8 °F 54% 30.18 in 10.0 mi Calm Calm - N/A   Clear
6:55 PM 41.5 °F - 33.6 °F 73% 30.18 in 10.0 mi Calm Calm - N/A   Clear
7:55 PM 38.5 °F - 32.7 °F 80% 30.19 in 10.0 mi Calm Calm - N/A   Clear
8:55 PM 40.5 °F 38.4 °F 32.2 °F 72% 30.19 in 10.0 mi ENE 3.5 mph - N/A   Clear
9:55 PM 39.9 °F 37.8 °F 32.0 °F 73% 30.19 in 10.0 mi ENE 3.5 mph - N/A   Clear
10:55 PM 36.9 °F - 31.1 °F 80% 30.20 in 10.0 mi Calm Calm - N/A   Partly Cloudy
11:55 PM 35.1 °F - 30.2 °F 82% 30.20 in 10.0 mi Calm Calm - N/A   Clear